Date String (YYYY-MM-DD hh:mm:ss) UTC,Instrument flags,Ambient pressure (hPa),Sample flow (lpm),Bypass flow (lpm),Sample temperature (°C),Ambient temperature (°C),ASC tube jacket temperature (°C),LED temperature (°C),Box temperature (°C),Sample RH (%),Span deviation,Mass concentration (μg/m³),Mass concentration (μg/m³),Mass concentration (μg/m³)
DateTimeUTC,F1_M11,P_M11,Q1_M11,Q2_M11,T1_M11,T2_M11,T3_M11,T4_M11,T5_M11,U1_M11,ZSPAN_M11,X0_M11,X2_M11,X1_M11
2021-09-25 09:00:00,,0830.5,5.01,0.00,30.4,29.6,00.0,39.6,32.1,15.2,0001.1,0023.37,0007.10,0005.16
2021-09-25 09:01:00,,0830.5,5.00,0.00,30.4,29.6,00.0,39.6,32.2,15.3,0001.1,0024.02,0007.16,0005.15
2021-09-25 09:02:00,,0830.5,4.99,0.00,30.4,29.6,00.0,39.6,32.2,15.3,0000.7,0024.95,0007.22,0005.15
2021-09-25 09:03:00,,0830.5,5.00,0.00,30.5,29.6,00.0,39.6,32.2,15.4,-000.2,0025.01,0007.34,0005.17
2021-09-25 09:04:00,,0830.5,4.99,0.00,30.5,29.6,00.0,39.6,32.2,15.4,-000.0,0025.42,0007.46,0005.21
2021-09-25 09:05:00,,0830.5,5.00,0.00,30.5,29.6,00.0,39.6,32.2,15.4,0000.4,0025.93,0007.62,0005.26
2021-09-25 09:06:00,,0830.5,5.01,0.00,30.5,29.6,00.0,39.6,32.2,15.5,0000.2,0026.98,0007.87,0005.31
2021-09-25 09:07:00,,0830.5,5.00,0.00,30.5,29.6,00.0,39.7,32.2,15.5,0000.2,0026.44,0007.99,0005.36
2021-09-25 09:08:00,,0830.5,4.99,0.00,30.5,29.6,00.0,39.7,32.2,15.5,0000.3,0024.90,0008.08,0005.39
2021-09-25 09:09:00,,0830.5,5.01,0.00,30.5,29.6,00.0,39.7,32.2,15.4,0000.9,0024.74,0008.07,0005.42
2021-09-25 09:10:00,,0830.5,5.00,0.00,30.5,29.6,00.0,39.7,32.2,15.4,0001.8,0023.44,0008.04,0005.44
2021-09-25 09:11:00,,0830.5,5.00,0.00,30.5,29.6,00.0,39.7,32.2,15.5,0001.9,0024.17,0008.10,0005.48
2021-09-25 09:12:00,,0830.5,4.99,0.00,30.5,29.6,00.0,39.7,32.2,15.5,0001.7,0024.79,0008.21,0005.53
2021-09-25 09:13:00,,0830.5,5.00,0.00,30.5,29.6,00.0,39.7,32.2,15.5,0001.9,0024.46,0008.23,0005.56
2021-09-25 09:14:00,,0830.5,4.99,0.00,30.5,29.6,00.0,39.7,32.2,15.5,0002.0,0025.48,0008.28,0005.58
2021-09-25 09:15:00,,0830.5,4.99,0.00,30.5,29.6,00.0,39.7,32.2,15.5,0002.1,0026.82,0008.25,0005.58
2021-09-25 09:16:00,,0830.5,5.00,0.00,30.5,29.6,00.0,39.7,32.2,15.5,0002.0,0027.20,0008.23,0005.56
2021-09-25 09:17:00,,0830.5,5.00,0.00,30.5,29.6,00.0,39.7,32.2,15.5,0002.0,0027.38,0008.16,0005.54
2021-09-25 09:18:00,,0830.5,5.00,0.00,30.5,29.6,00.0,39.7,32.2,15.5,0001.7,0026.76,0008.05,0005.53
2021-09-25 09:19:00,,0830.5,5.01,0.00,30.5,29.6,00.0,39.7,32.2,15.5,0002.1,0026.86,0008.00,0005.53
2021-09-25 09:20:00,,0830.5,5.00,0.00,30.5,29.6,00.0,39.7,32.2,15.5,0001.9,0026.45,0007.99,0005.54
2021-09-25 09:21:00,,0830.5,4.99,0.00,30.5,29.6,00.0,39.7,32.2,15.5,0001.4,0027.28,0008.03,0005.55
2021-09-25 09:22:00,,0830.6,5.01,0.00,30.5,29.6,00.0,39.7,32.2,15.5,0002.0,0026.71,0007.97,0005.54
2021-09-25 09:23:00,,0830.5,5.00,0.00,30.5,29.6,00.0,39.7,32.2,15.5,0002.2,0026.31,0007.89,0005.51
2021-09-25 09:24:00,,0830.5,4.99,0.00,30.5,29.6,00.0,39.7,32.2,15.5,0002.0,0025.96,0007.83,0005.51
2021-09-25 09:25:00,,0830.5,5.01,0.00,30.5,29.6,00.0,39.7,32.2,15.5,0002.3,0024.58,0007.76,0005.49
2021-09-25 09:26:00,,0830.4,5.00,0.00,30.5,29.6,00.0,39.7,32.2,15.5,0002.6,0023.81,0007.76,0005.48
2021-09-25 09:27:00,,0830.4,4.99,0.00,30.5,29.6,00.0,39.7,32.2,15.5,0002.8,0022.64,0007.71,0005.47
2021-09-25 09:28:00,,0830.4,5.01,0.00,30.5,29.6,00.0,39.7,32.2,15.5,0002.8,0021.45,0007.62,0005.48
2021-09-25 09:29:00,,0830.3,4.99,0.00,30.5,29.6,00.0,39.7,32.3,15.5,0003.0,0021.33,0007.57,0005.48
2021-09-25 09:30:00,,0830.3,5.00,0.00,30.5,29.6,00.0,39.7,32.3,15.6,0002.7,0022.60,0007.60,0005.47
2021-09-25 09:31:00,,0830.4,5.00,0.00,30.6,29.6,00.0,39.7,32.3,15.6,0002.7,0022.85,0007.53,0005.45
2021-09-25 09:32:00,,0830.4,5.00,0.00,30.6,29.6,00.0,39.7,32.2,15.6,0000.2,0022.76,0007.48,0005.44
2021-09-25 09:33:00,,0830.5,5.01,0.00,30.6,29.7,00.0,39.7,32.3,15.6,0000.0,0022.06,0007.48,0005.44
2021-09-25 09:34:00,,0830.4,4.99,0.00,30.6,29.6,00.0,39.7,32.3,15.6,0000.0,0021.23,0007.47,0005.45
2021-09-25 09:35:00,,0830.4,5.00,0.00,30.6,29.6,00.0,39.7,32.3,15.6,0000.0,0021.61,0007.42,0005.43
2021-09-25 09:36:00,,0830.4,5.01,0.00,30.5,29.6,00.0,39.7,32.2,15.6,0000.0,0021.87,0007.34,0005.42
2021-09-25 09:37:00,,0830.5,4.99,0.00,30.5,29.7,00.0,39.7,32.2,15.6,0000.0,0021.66,0007.29,0005.42
2021-09-25 09:38:00,,0830.4,5.00,0.00,30.5,29.6,00.0,39.7,32.2,15.6,0000.0,0021.78,0007.32,0005.41
2021-09-25 09:39:00,,0830.4,5.02,0.00,30.5,29.6,00.0,39.7,32.3,15.6,0001.5,0022.13,0007.32,0005.41
2021-09-25 09:40:00,,0830.5,5.00,0.00,30.5,29.6,00.0,39.7,32.2,15.6,0000.9,0021.63,0007.30,0005.39
2021-09-25 09:41:00,,0830.5,4.99,0.00,30.5,29.6,00.0,39.7,32.2,15.6,0000.4,0019.31,0007.23,0005.36
2021-09-25 09:42:00,,0830.4,4.99,0.00,30.5,29.7,00.0,39.7,32.2,15.7,0002.0,0018.35,0007.22,0005.36
2021-09-25 09:43:00,,0830.4,5.02,0.00,30.5,29.7,00.0,39.7,32.3,15.7,0002.0,0017.94,0007.23,0005.34
2021-09-25 09:44:00,,0830.4,4.99,0.00,30.6,29.6,00.0,39.7,32.2,15.6,0001.8,0017.78,0007.20,0005.34
2021-09-25 09:45:00,,0830.4,4.99,0.00,30.6,29.6,00.0,39.7,32.2,15.6,0002.0,0017.34,0007.15,0005.33
2021-09-25 09:46:00,,0830.4,5.02,0.00,30.5,29.7,00.0,39.7,32.2,15.7,0002.3,0016.19,0007.14,0005.34
2021-09-25 09:47:00,,0830.5,5.00,0.00,30.5,29.6,00.0,39.7,32.2,15.7,0002.8,0017.00,0007.22,0005.35
2021-09-25 09:48:00,,0830.5,5.00,0.00,30.6,29.7,00.0,39.7,32.2,15.7,0001.9,0017.62,0007.24,0005.34
2021-09-25 09:49:00,,0830.4,5.01,0.00,30.5,29.7,00.0,39.7,32.2,15.7,0001.7,0017.76,0007.22,0005.34
2021-09-25 09:50:00,,0830.4,5.00,0.00,30.6,29.7,00.0,39.7,32.2,15.7,0001.2,0018.10,0007.21,0005.33
2021-09-25 09:51:00,,0830.4,5.00,0.00,30.6,29.7,00.0,39.7,32.3,15.7,0001.5,0018.42,0007.20,0005.33
2021-09-25 09:52:00,,0830.4,5.00,0.00,30.6,29.6,00.0,39.7,32.3,15.6,0001.5,0018.81,0007.20,0005.33
2021-09-25 09:53:00,,0830.4,5.00,0.00,30.6,29.7,00.0,39.7,32.3,15.6,0001.6,0019.35,0007.23,0005.33
2021-09-25 09:54:00,,0830.3,5.00,0.00,30.6,29.7,00.0,39.7,32.3,15.7,0002.0,0019.51,0007.21,0005.34
2021-09-25 09:55:00,,0830.4,4.99,0.00,30.6,29.7,00.0,39.7,32.3,15.7,0002.4,0019.72,0007.24,0005.35
2021-09-25 09:56:00,,0830.3,5.00,0.00,30.6,29.7,00.0,39.7,32.3,15.7,0002.5,0019.95,0007.26,0005.36
2021-09-25 09:57:00,,0830.3,5.00,0.00,30.6,29.7,00.0,39.8,32.3,15.7,0002.4,0019.80,0007.26,0005.35
2021-09-25 09:58:00,,0830.3,5.00,0.00,30.6,29.6,00.0,39.8,32.3,15.7,0001.6,0018.49,0007.17,0005.34
2021-09-25 09:59:00,,0830.3,5.00,0.00,30.6,29.6,00.0,39.8,32.3,15.7,0003.6,0018.13,0007.08,0005.34
